Regional Weather Roundup
Issued by NWS Goodland, KS

Home | Current Version | Previous Version | Text Only | Print | Product List | Glossary On
Versions: 1 2 3 4 5 6 7 8 9 10 11 12 13 14 15 16 17 18 19 20 21 22 23 24 25 26 27 28 29 30 31 32 33 34 35 36 37 38 39 40 41 42 43 44 45 46 47 48 49 50
000
ASUS43 KGLD 260808
RWRGLD

GOODLAND FORECAST AREA HOURLY WEATHER ROUNDUP
NATIONAL WEATHER SERVICE GOODLAND KS
200 AM MDT TUE MAY 26 2015

...OFFICIAL OBSERVATIONS...

CITY           SKY/WX    TMP DP  RH WIND       PRES   REMARKS
GOODLAND KS    MOCLDY    48  46  93 NW6       29.95R
HILL CITY KS   CLOUDY    57  52  83 NW13      29.85S
IMPERIAL NEB   PTCLDY    52  48  86 NW8       29.92S
MCCOOK NEB     PTCLDY    53  49  86 NW13      29.88S
AKRON CO       PTCLDY    47  45  93 W10       29.97F
BURLINGTON CO  PTCLDY    48  44  86 NW9       29.95S
LIMON CO       CLOUDY    52  42  69 N15       29.98F
$$

...UNOFFICIAL OBSERVATIONS...

CITY           SKY/WX    TMP DP  RH WIND       PRES   REMARKS
COLBY KS       CLEAR     50  50 100 NW8       29.92F
GOVE KS          N/A     55  32  41 MISG        N/A
LENORA KS        N/A     55  32  41 MISG        N/A
NORTON KS      CLEAR     54  48  82 W10       29.84R
SHARON SPRINGS   N/A     52  48  86 MISG        N/A
TRENTON NEB      N/A     52  32  46 NW10        N/A
KIT CARSON CO    N/A     48  45  88 MISG        N/A
$$


USA.gov is the U.S. government's official web portal to all federal, state and local government web resources and services.